Location: Lafig�re
(44.4503°N, 4.0357°E)
Time: 13:37:37
(UTC+00:00)

S-56A Canister/Altair - Pass Details

Date: 23 January 2021
Orbit: 631 x 2501 km, 38.9° (Epoch: 01 March)

Event Time Altitude Azimuth Distance (km) Brightness Sun altitude
Rises 07:41:00 0° 269° (W) 3,233 10.2 3.8°
Reaches altitude 10° 07:43:39 10° 254° (WSW) 2,480 9.8 4.2°
Maximum altitude 07:48:07 23° 203° (SSW) 2,047 9.9 4.9°
Drops below altitude 10° 07:53:57 10° 156° (SSE) 3,320 12.0 5.7°
Sets 07:58:11 0° 143° (SE) 4,658 13.2 6.4°
